Home   Weather   Garland   Past weeks

Flag for USA Past Weather in Garland, Texas, USA — Yesterday and Last 2 Weeks

Now
46 °F

Low clouds.


Feels Like: 45 °F
Forecast: 46 / 52 °F
Wind: 3 mph from Northeast

Location: Mesquite Metro Airport

Current Time: Jan 18, 2017 at 10:20:11 am

Latest Report: Jan 18, 2017 at 9:50 am


Visibility: 7 mi

Pressure: 30.09 "Hg

Humidity: 100%

Dew Point: 46 °F

Location of GarlandLocation

Past Weather in Garland — Graph

°F

Garland Temperature Yesterday

Maximum temperature yesterday: 51 °F (at 12:35 am)
Minimum temperature yesterday: 45 °F (at 6:15 am)
Average temperature yesterday: 47 °F

High & Low Weather Summary for the Past Weeks

 TemperatureHumidityPressure
High79 °F (Jan 10, 2:50 pm)100% (Jan 5, 7:50 am)30.80 "Hg (Jan 5, 7:50 am)
Low15 °F (Jan 7, 2:35 am)20% (Jan 8, 3:50 pm)29.84 "Hg (Jan 11, 3:50 pm)
Average45 °F76%30.21 "Hg
* Reported Jan 3 8:50 am — Jan 18 8:50 am, Garland, Weather by CustomWeather, © 2017

Note: Actual official high and low records may vary slightly from our data, if they occured in-between our weather recording intervals... More about our weather records

Advertising

Garland Weather History for the Previous 24 Hours

Scroll right to see more
 ConditionsComfort  
Time TempWeatherWind HumidityBarometerVisibility
8:50 am
Wed, Jan 18
46 °FFog.9 mph100%30.14 "Hg1 mi
8:30 am46 °FFog.8 mph100%30.16 "Hg1 mi
8:12 am46 °FFog.6 mph100%30.16 "Hg3 mi
7:50 am46 °FOvercast.3 mph100%30.13 "Hg10 mi
6:50 am46 °FMostly cloudy.3 mph100%30.12 "Hg10 mi
6:15 am46 °FMostly cloudy.5 mph99%30.12 "Hg10 mi
5:55 am46 °FMostly cloudy.3 mph99%30.12 "Hg10 mi
5:15 am46 °FMostly cloudy.6 mph99%30.12 "Hg10 mi
4:55 am46 °FMostly cloudy.5 mph99%30.12 "Hg10 mi
4:15 am46 °FMostly cloudy.No wind99%30.12 "Hg10 mi
3:35 am46 °FLow clouds.No wind99%30.14 "Hg10 mi
2:55 am46 °FMostly cloudy.3 mph99%30.16 "Hg4 mi
2:15 am46 °FOvercast.7 mph99%30.16 "Hg5 mi
1:55 am46 °FMostly cloudy.3 mph99%30.14 "Hg7 mi
1:15 am46 °FMostly cloudy.3 mph99%30.14 "Hg7 mi
12:35 am46 °FOvercast.3 mph99%30.13 "Hg10 mi
11:55 pm
Tue, Jan 17
46 °FOvercast.3 mph98%30.13 "Hg10 mi
11:15 pm45 °FMostly cloudy.7 mph99%30.15 "Hg10 mi
10:35 pm46 °FMostly cloudy.6 mph98%30.16 "Hg2 mi
10:15 pm46 °FOvercast.No wind99%30.20 "Hg10 mi
9:55 pm46 °FOvercast.No wind99%30.18 "Hg10 mi
9:35 pm46 °FOvercast.5 mph99%30.18 "Hg10 mi
8:55 pm46 °FPartly cloudy.7 mph99%30.17 "Hg10 mi
7:50 pm46 °FOvercast.3 mph93%30.18 "Hg10 mi
6:50 pm46 °FLight rain. Mostly cloudy.3 mph93%30.18 "Hg7 mi
5:50 pm48 °FOvercast.No wind87%30.13 "Hg10 mi
4:50 pm48 °FLight rain. Cloudy.7 mph76%30.09 "Hg7 mi
3:50 pm50 °FPartly sunny.No wind67%30.15 "Hg10 mi
2:50 pm48 °FPartly sunny.6 mph66%30.15 "Hg10 mi
1:50 pm48 °FOvercast.5 mph66%30.16 "Hg10 mi
12:50 pm48 °FPartly sunny.9 mph66%30.18 "Hg10 mi
11:50 am48 °FScattered clouds.7 mph62%30.21 "Hg10 mi
10:50 am46 °FScattered clouds.13 mph66%30.22 "Hg10 mi
Weather by CustomWeather, © 2017

See weather overviewHow to use our weather pages